| time (UTC) | temp C | wind direction | speed KPH | gust KPH | rain 1hr cm | rain 24hr cm | rain mn cm | humidity % | barometer mb |
| 20260906080130 | 21 | 316 | 1.6 | 1.6 | 0.00 | 0.00 | 0.00 | 91 | 1013.6 |
| 20260906075624 | 22 | 315 | 1.6 | 1.6 | 0.00 | 0.00 | 0.00 | 91 | 1013.2 |
| 20260906075119 | 22 | 306 | 0.0 | 1.6 | 0.00 | 0.00 | 0.00 | 92 | 1013.2 |
| 20260906074615 | 22 | 309 | 0.0 | 1.6 | 0.00 | 0.00 | 0.00 | 93 | 1013.3 |
| 20260906074113 | 22 | 174 | 3.2 | 4.8 | 0.00 | 0.00 | 0.00 | 93 | 1013.1 |
| 20260906073608 | 22 | 269 | 0.0 | 1.6 | 0.00 | 0.00 | 0.00 | 94 | 1013.2 |
| 20260906073104 | 22 | 299 | 0.0 | 0.0 | 0.00 | 0.00 | 0.00 | 94 | 1013.3 |
| 20260906072559 | 22 | 36 | 1.6 | 3.2 | 0.00 | 0.00 | 0.00 | 94 | 1013.4 |
| 20260906072055 | 22 | 280 | 0.0 | 0.0 | 0.00 | 0.00 | 0.00 | 94 | 1013.3 |
| 20260906071551 | 22 | 220 | 0.0 | 1.6 | 0.00 | 0.00 | 0.00 | 94 | 1013.3 |
| 20260906071045 | 22 | 277 | 1.6 | 1.6 | 0.00 | 0.00 | 0.00 | 94 | 1013.2 |
| 20260906070542 | 22 | 285 | 1.6 | 3.2 | 0.00 | 0.00 | 0.00 | 95 | 1013.2 |
| 20260906070037 | 22 | 278 | 0.0 | 1.6 | 0.00 | 0.00 | 0.00 | 95 | 1013.2 |
| 20260906065537 | 22 | 273 | 0.0 | 0.0 | 0.00 | 0.00 | 0.00 | 95 | 1013.4 |
| 20260906065032 | 22 | 288 | 0.0 | 0.0 | 0.00 | 0.00 | 0.00 | 95 | 1013.2 |
| 20260906064528 | 22 | 283 | 0.0 | 1.6 | 0.00 | 0.00 | 0.00 | 95 | 1013.3 |
| 20260906064023 | 22 | 278 | 0.0 | 0.0 | 0.00 | 0.00 | 0.00 | 95 | 1013.3 |
| 20260906063518 | 23 | 277 | 0.0 | 0.0 | 0.00 | 0.00 | 0.00 | 95 | 1013.2 |
| 20260906063015 | 23 | 277 | 0.0 | 0.0 | 0.00 | 0.00 | 0.00 | 95 | 1013.2 |
| 20260906062509 | 23 | 308 | 1.6 | 1.6 | 0.00 | 0.00 | 0.00 | 95 | 1013.3 |
| 20260906062003 | 23 | 282 | 1.6 | 1.6 | 0.00 | 0.00 | 0.00 | 95 | 1013.4 |
| 20260906061459 | 23 | 283 | 0.0 | 0.0 | 0.00 | 0.00 | 0.00 | 94 | 1013.1 |
| 20260906060954 | 23 | 293 | 0.0 | 0.0 | 0.00 | 0.00 | 0.00 | 94 | 1013.2 |
| 20260906060451 | 23 | 340 | 1.6 | 1.6 | 0.00 | 0.00 | 0.00 | 94 | 1013.3 |
| 20260906055947 | 23 | 282 | 0.0 | 0.0 | 0.00 | 0.00 | 0.00 | 94 | 1013.2 |
| 20260906055443 | 23 | 282 | 0.0 | 0.0 | 0.00 | 0.00 | 0.00 | 94 | 1013.2 |
| 20260906054938 | 23 | 286 | 0.0 | 1.6 | 0.00 | 0.00 | 0.00 | 93 | 1013.1 |
| 20260906054432 | 23 | 295 | 1.6 | 1.6 | 0.00 | 0.00 | 0.00 | 93 | 1013.1 |
| 20260906053928 | 23 | 283 | 0.0 | 0.0 | 0.00 | 0.00 | 0.00 | 93 | 1012.8 |
| 20260906053424 | 23 | 279 | 0.0 | 0.0 | 0.00 | 0.00 | 0.00 | 93 | 1012.9 |
| 20260906052920 | 23 | 275 | 0.0 | 0.0 | 0.00 | 0.00 | 0.00 | 93 | 1012.8 |
| 20260906052416 | 23 | 280 | 0.0 | 0.0 | 0.00 | 0.00 | 0.00 | 93 | 1012.9 |
| 20260906051913 | 23 | 279 | 0.0 | 1.6 | 0.00 | 0.00 | 0.00 | 93 | 1012.9 |
| 20260906051413 | 23 | 277 | 0.0 | 1.6 | 0.00 | 0.00 | 0.00 | 94 | 1012.9 |
| 20260906050908 | 23 | 288 | 0.0 | 0.0 | 0.00 | 0.00 | 0.00 | 94 | 1013.2 |
| 20260906050403 | 23 | 284 | 0.0 | 1.6 | 0.00 | 0.00 | 0.00 | 94 | 1013.0 |
| 20260906045902 | 23 | 266 | 0.0 | 0.0 | 0.00 | 0.00 | 0.00 | 94 | 1013.1 |
| 20260906045401 | 23 | 281 | 0.0 | 1.6 | 0.00 | 0.00 | 0.00 | 94 | 1013.2 |
| 20260906044857 | 23 | 137 | 1.6 | 3.2 | 0.00 | 0.00 | 0.00 | 94 | 1013.0 |
| 20260906044352 | 23 | 282 | 0.0 | 0.0 | 0.00 | 0.00 | 0.00 | 94 | 1012.7 |
| 20260906043848 | 23 | 291 | 0.0 | 1.6 | 0.00 | 0.00 | 0.00 | 93 | 1012.7 |
| 20260906043343 | 23 | 287 | 0.0 | 1.6 | 0.00 | 0.00 | 0.00 | 93 | 1012.8 |
| 20260906042839 | 24 | 66 | 4.8 | 4.8 | 0.00 | 0.00 | 0.00 | 93 | 1012.7 |
| 20260906042337 | 24 | 98 | 1.6 | 3.2 | 0.00 | 0.00 | 0.00 | 93 | 1012.6 |
| 20260906041833 | 24 | 177 | 1.6 | 1.6 | 0.00 | 0.00 | 0.00 | 92 | 1012.6 |
| 20260906041329 | 24 | 62 | 1.6 | 1.6 | 0.00 | 0.00 | 0.00 | 92 | 1012.5 |
| 20260906040828 | 24 | 296 | 3.2 | 4.8 | 0.00 | 0.00 | 0.00 | 92 | 1012.6 |
| 20260906040324 | 25 | 155 | 3.2 | 3.2 | 0.00 | 0.00 | 0.00 | 92 | 1012.6 |
| 20260906035819 | 25 | 278 | 0.0 | 1.6 | 0.00 | 0.15 | 0.15 | 92 | 1012.5 |
| 20260906035314 | 25 | 196 | 1.6 | 3.2 | 0.00 | 0.15 | 0.15 | 92 | 1012.6 |
| 20260906034810 | 25 | 282 | 0.0 | 0.0 | 0.00 | 0.15 | 0.15 | 91 | 1012.5 |
| 20260906034309 | 25 | 80 | 4.8 | 4.8 | 0.00 | 0.15 | 0.15 | 91 | 1012.7 |
| 20260906033805 | 25 | 81 | 3.2 | 3.2 | 0.00 | 0.15 | 0.15 | 91 | 1012.5 |
| 20260906033304 | 25 | 67 | 3.2 | 4.8 | 0.00 | 0.15 | 0.15 | 91 | 1012.5 |
| 20260906032801 | 25 | 52 | 3.2 | 3.2 | 0.00 | 0.15 | 0.15 | 91 | 1012.4 |
| 20260906032256 | 25 | 81 | 8.0 | 11.3 | 0.00 | 0.15 | 0.15 | 92 | 1012.5 |
| 20260906031751 | 25 | 342 | 1.6 | 1.6 | 0.00 | 0.15 | 0.15 | 92 | 1012.3 |
| 20260906031247 | 25 | 270 | 1.6 | 1.6 | 0.00 | 0.15 | 0.15 | 92 | 1012.3 |
| 20260906030746 | 25 | 279 | 0.0 | 0.0 | 0.00 | 0.15 | 0.15 | 92 | 1012.3 |
| 20260906030242 | 25 | 303 | 1.6 | 1.6 | 0.00 | 0.15 | 0.15 | 92 | 1012.5 |
| 20260906025741 | 25 | 286 | 0.0 | 1.6 | 0.00 | 0.15 | 0.15 | 92 | 1012.5 |
| 20260906025235 | 25 | 279 | 0.0 | 1.6 | 0.00 | 0.15 | 0.15 | 92 | 1012.3 |
| 20260906024734 | 25 | 282 | 0.0 | 0.0 | 0.00 | 0.15 | 0.15 | 91 | 1012.6 |
| 20260906024234 | 25 | 292 | 1.6 | 1.6 | 0.00 | 0.15 | 0.15 | 91 | 1012.1 |
| 20260906023730 | 25 | 298 | 0.0 | 1.6 | 0.00 | 0.15 | 0.15 | 91 | 1012.3 |
| 20260906023225 | 25 | 282 | 0.0 | 1.6 | 0.00 | 0.15 | 0.15 | 90 | 1012.2 |
| 20260906022720 | 25 | 289 | 1.6 | 1.6 | 0.00 | 0.15 | 0.15 | 90 | 1012.1 |
| 20260906022216 | 25 | 278 | 1.6 | 1.6 | 0.00 | 0.15 | 0.15 | 90 | 1012.1 |
| 20260906021712 | 25 | 310 | 1.6 | 1.6 | 0.00 | 0.15 | 0.15 | 91 | 1012.0 |
| 20260906021210 | 26 | 297 | 1.6 | 1.6 | 0.00 | 0.15 | 0.15 | 91 | 1012.0 |
| 20260906020705 | 26 | 285 | 1.6 | 1.6 | 0.00 | 0.15 | 0.15 | 90 | 1011.7 |
| 20260906020200 | 26 | 286 | 0.0 | 0.0 | 0.00 | 0.15 | 0.15 | 89 | 1011.8 |
| 20260906015654 | 26 | 283 | 0.0 | 1.6 | 0.00 | 0.15 | 0.15 | 89 | 1011.6 |
| 20260906015152 | 26 | 293 | 1.6 | 1.6 | 0.00 | 0.15 | 0.15 | 89 | 1011.9 |
| 20260906014647 | 26 | 287 | 0.0 | 1.6 | 0.00 | 0.15 | 0.15 | 89 | 1011.5 |
| 20260906014143 | 26 | 277 | 1.6 | 1.6 | 0.00 | 0.15 | 0.15 | 89 | 1011.5 |
| 20260906013638 | 26 | 278 | 0.0 | 0.0 | 0.00 | 0.15 | 0.15 | 90 | 1011.5 |
| 20260906013133 | 26 | 281 | 0.0 | 0.0 | 0.00 | 0.15 | 0.15 | 89 | 1011.6 |
| 20260906012628 | 26 | 283 | 0.0 | 1.6 | 0.00 | 0.15 | 0.15 | 89 | 1011.5 |
| 20260906012123 | 26 | 286 | 0.0 | 1.6 | 0.00 | 0.15 | 0.15 | 88 | 1011.3 |
| 20260906011618 | 26 | 282 | 0.0 | 1.6 | 0.00 | 0.15 | 0.15 | 88 | 1011.3 |
| 20260906011113 | 26 | 280 | 0.0 | 0.0 | 0.00 | 0.15 | 0.15 | 88 | 1011.4 |
| 20260906010608 | 26 | 290 | 1.6 | 1.6 | 0.00 | 0.15 | 0.15 | 88 | 1011.2 |
| 20260906010104 | 26 | 295 | 1.6 | 1.6 | 0.00 | 0.15 | 0.15 | 88 | 1011.1 |
| 20260906005604 | 26 | 286 | 0.0 | 1.6 | 0.00 | 0.15 | 0.15 | 88 | 1011.2 |
| 20260906005102 | 26 | 282 | 0.0 | 0.0 | 0.00 | 0.15 | 0.15 | 89 | 1011.0 |
| 20260906004556 | 26 | 288 | 1.6 | 1.6 | 0.00 | 0.15 | 0.15 | 89 | 1010.7 |
| 20260906004052 | 26 | 280 | 0.0 | 0.0 | 0.00 | 0.15 | 0.15 | 90 | 1010.6 |
| 20260906003546 | 26 | 284 | 0.0 | 1.6 | 0.00 | 0.15 | 0.15 | 89 | 1010.7 |
| 20260906003042 | 26 | 283 | 1.6 | 1.6 | 0.00 | 0.15 | 0.15 | 89 | 1010.7 |
| 20260906002537 | 26 | 285 | 0.0 | 1.6 | 0.00 | 0.15 | 0.15 | 89 | 1010.8 |
| 20260906002032 | 26 | 292 | 0.0 | 1.6 | 0.00 | 0.15 | 0.15 | 89 | 1010.8 |
| 20260906001527 | 26 | 286 | 0.0 | 1.6 | 0.00 | 0.15 | 0.15 | 88 | 1010.5 |
| 20260906001021 | 26 | 280 | 0.0 | 0.0 | 0.00 | 0.15 | 0.15 | 87 | 1010.7 |
| 20260906000518 | 26 | 279 | 0.0 | 0.0 | 0.00 | 0.15 | 0.15 | 87 | 1010.9 |
| 20260906000012 | 26 | 281 | 0.0 | 1.6 | 0.00 | 0.15 | 0.15 | 88 | 1010.8 |
| 20260905235506 | 26 | 278 | 0.0 | 0.0 | 0.00 | 0.15 | 0.15 | 89 | 1010.7 |
| 20260905235001 | 26 | 279 | 0.0 | 0.0 | 0.00 | 0.15 | 0.15 | 88 | 1010.7 |
| 20260905234456 | 26 | 279 | 0.0 | 0.0 | 0.00 | 0.15 | 0.15 | 87 | 1010.7 |
| 20260905233950 | 26 | 279 | 0.0 | 0.0 | 0.00 | 0.15 | 0.15 | 88 | 1010.7 |
| 20260905233446 | 26 | 279 | 0.0 | 0.0 | 0.00 | 0.15 | 0.15 | 88 | 1010.6 |
| 20260905232945 | 26 | 279 | 0.0 | 0.0 | 0.00 | 0.15 | 0.15 | 88 | 1010.6 |
| 20260905232441 | 26 | 279 | 0.0 | 0.0 | 0.00 | 0.15 | 0.15 | 87 | 1010.9 |
| 20260905231937 | 27 | 279 | 0.0 | 0.0 | 0.00 | 0.15 | 0.15 | 86 | 1010.9 |
| 20260905231432 | 26 | 279 | 0.0 | 0.0 | 0.00 | 0.15 | 0.15 | 87 | 1010.8 |
| 20260905230929 | 26 | 279 | 0.0 | 0.0 | 0.00 | 0.15 | 0.15 | 89 | 1010.5 |
| 20260905230427 | 26 | 279 | 0.0 | 0.0 | 0.00 | 0.15 | 0.15 | 91 | 1010.2 |
| 20260905225925 | 26 | 279 | 0.0 | 0.0 | 0.00 | 0.15 | 0.15 | 92 | 1010.3 |
| 20260905225420 | 26 | 279 | 0.0 | 0.0 | 0.00 | 0.15 | 0.15 | 92 | 1010.4 |
| 20260905224915 | 26 | 279 | 0.0 | 0.0 | 0.00 | 0.15 | 0.15 | 91 | 1010.3 |
| 20260905224411 | 26 | 279 | 0.0 | 1.6 | 0.00 | 0.15 | 0.15 | 93 | 1010.5 |
| 20260905223905 | 26 | 279 | 0.0 | 0.0 | 0.00 | 0.15 | 0.15 | 94 | 1010.4 |
| 20260905223403 | 26 | 270 | 0.0 | 0.0 | 0.00 | 0.15 | 0.15 | 93 | 1010.5 |
| 20260905222858 | 26 | 278 | 0.0 | 1.6 | 0.00 | 0.15 | 0.15 | 96 | 1010.3 |
| 20260905222356 | 25 | 278 | 0.0 | 0.0 | 0.00 | 0.15 | 0.15 | 96 | 1010.4 |
| 20260905221852 | 25 | 289 | 0.0 | 0.0 | 0.00 | 0.15 | 0.15 | 96 | 1010.6 |
| 20260905221349 | 25 | 275 | 1.6 | 1.6 | 0.00 | 0.15 | 0.15 | 96 | 1010.3 |
| 20260905220839 | 25 | 285 | 0.0 | 1.6 | 0.00 | 0.15 | 0.15 | 97 | 1010.5 |
| 20260905220335 | 25 | 278 | 0.0 | 0.0 | 0.00 | 0.15 | 0.15 | 97 | 1010.6 |
| 20260905215834 | 25 | 267 | 3.2 | 3.2 | 0.00 | 0.15 | 0.15 | 97 | 1010.6 |
| 20260905215330 | 25 | 274 | 1.6 | 3.2 | 0.13 | 0.15 | 0.15 | 96 | 1010.4 |
| 20260905214826 | 26 | 293 | 1.6 | 1.6 | 0.61 | 0.15 | 0.15 | 94 | 1010.5 |
| 20260905214321 | 27 | 287 | 0.0 | 0.0 | 0.61 | 0.13 | 0.13 | 92 | 1010.4 |
| 20260905213816 | 29 | 293 | 1.6 | 1.6 | 0.30 | 0.05 | 0.05 | 88 | 1010.8 |
| 20260905213312 | 30 | 275 | 0.0 | 0.0 | 0.18 | 0.03 | 0.03 | 83 | 1010.6 |
| 20260905212807 | 31 | 276 | 0.0 | 1.6 | 0.00 | 0.00 | 0.00 | 76 | 1010.5 |
| 20260905212307 | 31 | 284 | 0.0 | 0.0 | 0.00 | 0.00 | 0.00 | 74 | 1010.6 |
| 20260905211801 | 31 | 284 | 1.6 | 1.6 | 0.00 | 0.00 | 0.00 | 73 | 1010.2 |
| 20260905211255 | 32 | 239 | 1.6 | 1.6 | 0.00 | 0.00 | 0.00 | 72 | 1010.3 |
| 20260905210753 | 32 | 287 | 3.2 | 3.2 | 0.00 | 0.00 | 0.00 | 70 | 1010.4 |
| 20260905210247 | 32 | 276 | 0.0 | 1.6 | 0.00 | 0.00 | 0.00 | 69 | 1010.4 |
| 20260905205746 | 33 | 285 | 1.6 | 3.2 | 0.00 | 0.00 | 0.00 | 68 | 1010.6 |
| 20260905205241 | 32 | 284 | 1.6 | 1.6 | 0.00 | 0.00 | 0.00 | 68 | 1010.2 |
| 20260905204740 | 33 | 272 | 1.6 | 1.6 | 0.00 | 0.00 | 0.00 | 67 | 1010.4 |
| 20260905204236 | 35 | 285 | 1.6 | 1.6 | 0.00 | 0.00 | 0.00 | 64 | 1010.4 |
| 20260905203735 | 35 | 290 | 1.6 | 1.6 | 0.00 | 0.00 | 0.00 | 63 | 1010.4 |
| 20260905203231 | 35 | 285 | 4.8 | 4.8 | 0.00 | 0.00 | 0.00 | 63 | 1010.7 |
| 20260905202726 | 35 | 297 | 1.6 | 1.6 | 0.00 | 0.00 | 0.00 | 63 | 1010.6 |
| 20260905202221 | 34 | 256 | 4.8 | 4.8 | 0.00 | 0.00 | 0.00 | 62 | 1010.8 |
| 20260905201717 | 34 | 353 | 6.4 | 11.3 | 0.00 | 0.00 | 0.00 | 63 | 1010.9 |
| 20260905201217 | 35 | 285 | 3.2 | 3.2 | 0.00 | 0.00 | 0.00 | 62 | 1010.9 |
| 20260905200712 | 35 | 268 | 1.6 | 1.6 | 0.00 | 0.00 | 0.00 | 60 | 1010.7 |
| 20260905200208 | 35 | 271 | 1.6 | 1.6 | 0.00 | 0.00 | 0.00 | 63 | 1010.9 |
| 20260905195200 | 35 | 272 | 0.0 | 1.6 | 0.00 | 0.00 | 0.00 | 63 | 1010.8 |
| 20260905194650 | 34 | 271 | 1.6 | 1.6 | 0.00 | 0.00 | 0.00 | 64 | 1011.1 |
| 20260905194149 | 33 | 298 | 1.6 | 1.6 | 0.00 | 0.00 | 0.00 | 64 | 1011.0 |
| 20260905193638 | 33 | 275 | 1.6 | 1.6 | 0.00 | 0.00 | 0.00 | 65 | 1011.1 |
| 20260905193133 | 33 | 290 | 3.2 | 3.2 | 0.00 | 0.00 | 0.00 | 66 | 1011.1 |
| 20260905192629 | 34 | 306 | 4.8 | 4.8 | 0.00 | 0.00 | 0.00 | 63 | 1011.0 |
| 20260905192125 | 34 | 197 | 3.2 | 3.2 | 0.00 | 0.00 | 0.00 | 61 | 1011.3 |
| 20260905191625 | 33 | 269 | 1.6 | 3.2 | 0.00 | 0.00 | 0.00 | 63 | 1011.1 |
| 20260905191123 | 33 | 284 | 3.2 | 4.8 | 0.00 | 0.00 | 0.00 | 64 | 1011.4 |
| 20260905190621 | 34 | 265 | 0.0 | 1.6 | 0.00 | 0.00 | 0.00 | 64 | 1011.4 |
| 20260905190121 | 33 | 271 | 1.6 | 1.6 | 0.00 | 0.00 | 0.00 | 62 | 1011.7 |
| 20260905185620 | 33 | 264 | 4.8 | 4.8 | 0.00 | 0.00 | 0.00 | 63 | 1011.6 |
| 20260905185114 | 33 | 272 | 3.2 | 4.8 | 0.00 | 0.00 | 0.00 | 62 | 1011.5 |
| 20260905184609 | 33 | 211 | 1.6 | 3.2 | 0.00 | 0.00 | 0.00 | 61 | 1011.8 |
| 20260905184108 | 33 | 280 | 0.0 | 1.6 | 0.00 | 0.00 | 0.00 | 61 | 1011.9 |
| 20260905183607 | 33 | 203 | 3.2 | 3.2 | 0.00 | 0.00 | 0.00 | 63 | 1012.1 |
| 20260905183103 | 34 | 256 | 1.6 | 3.2 | 0.00 | 0.00 | 0.00 | 61 | 1012.2 |
| 20260905182602 | 33 | 231 | 1.6 | 3.2 | 0.00 | 0.00 | 0.00 | 62 | 1012.0 |
| 20260905182056 | 33 | 307 | 3.2 | 4.8 | 0.00 | 0.00 | 0.00 | 64 | 1012.2 |
| 20260905181551 | 33 | 251 | 0.0 | 1.6 | 0.00 | 0.00 | 0.00 | 62 | 1012.1 |
| 20260905181050 | 32 | 298 | 1.6 | 1.6 | 0.00 | 0.00 | 0.00 | 64 | 1012.2 |
| 20260905180545 | 32 | 304 | 3.2 | 4.8 | 0.00 | 0.00 | 0.00 | 65 | 1012.2 |
| 20260905180041 | 32 | 254 | 1.6 | 1.6 | 0.00 | 0.00 | 0.00 | 65 | 1012.5 |
| 20260905175539 | 32 | 288 | 3.2 | 4.8 | 0.00 | 0.00 | 0.00 | 64 | 1012.4 |
| 20260905175035 | 31 | 274 | 1.6 | 3.2 | 0.00 | 0.00 | 0.00 | 64 | 1012.4 |
| 20260905174531 | 32 | 274 | 1.6 | 1.6 | 0.00 | 0.00 | 0.00 | 64 | 1012.5 |
| 20260905174026 | 32 | 263 | 1.6 | 3.2 | 0.00 | 0.00 | 0.00 | 65 | 1012.5 |
| 20260905173523 | 31 | 261 | 1.6 | 3.2 | 0.00 | 0.00 | 0.00 | 63 | 1012.5 |
| 20260905173018 | 32 | 306 | 4.8 | 4.8 | 0.00 | 0.00 | 0.00 | 64 | 1012.4 |
| 20260905172516 | 31 | 262 | 3.2 | 3.2 | 0.00 | 0.00 | 0.00 | 63 | 1012.5 |
| 20260905172012 | 32 | 271 | 1.6 | 1.6 | 0.00 | 0.00 | 0.00 | 63 | 1012.6 |
| 20260905171508 | 32 | 275 | 0.0 | 1.6 | 0.00 | 0.00 | 0.00 | 62 | 1012.7 |
| 20260905171003 | 32 | 266 | 0.0 | 1.6 | 0.00 | 0.00 | 0.00 | 64 | 1012.7 |
| 20260905170500 | 31 | 75 | 1.6 | 1.6 | 0.00 | 0.00 | 0.00 | 64 | 1012.8 |
| 20260905165954 | 31 | 217 | 1.6 | 3.2 | 0.00 | 0.00 | 0.00 | 63 | 1012.9 |
| 20260905165449 | 31 | 263 | 1.6 | 3.2 | 0.00 | 0.00 | 0.00 | 66 | 1013.1 |
| 20260905164944 | 31 | 295 | 1.6 | 1.6 | 0.00 | 0.00 | 0.00 | 65 | 1013.1 |
| 20260905164444 | 30 | 256 | 3.2 | 3.2 | 0.00 | 0.00 | 0.00 | 66 | 1013.1 |
| 20260905163939 | 31 | 281 | 3.2 | 3.2 | 0.00 | 0.00 | 0.00 | 63 | 1013.2 |
| 20260905163436 | 31 | 141 | 3.2 | 3.2 | 0.00 | 0.00 | 0.00 | 64 | 1013.1 |
| 20260905162931 | 30 | 265 | 1.6 | 1.6 | 0.00 | 0.00 | 0.00 | 65 | 1013.2 |
| 20260905162426 | 30 | 283 | 4.8 | 8.0 | 0.00 | 0.00 | 0.00 | 63 | 1013.4 |
| 20260905161921 | 31 | 278 | 4.8 | 4.8 | 0.00 | 0.00 | 0.00 | 63 | 1013.3 |
| 20260905161420 | 30 | 255 | 0.0 | 0.0 | 0.00 | 0.00 | 0.00 | 65 | 1013.0 |
| 20260905160918 | 30 | 265 | 4.8 | 4.8 | 0.00 | 0.00 | 0.00 | 65 | 1013.0 |
| 20260905160412 | 30 | 267 | 1.6 | 1.6 | 0.00 | 0.00 | 0.00 | 65 | 1013.1 |
| 20260905155906 | 30 | 286 | 3.2 | 3.2 | 0.00 | 0.00 | 0.00 | 66 | 1013.1 |
| 20260905155401 | 30 | 338 | 1.6 | 3.2 | 0.00 | 0.00 | 0.00 | 66 | 1013.0 |
| 20260905154900 | 30 | 352 | 1.6 | 3.2 | 0.00 | 0.00 | 0.00 | 66 | 1013.2 |
| 20260905154356 | 30 | 182 | 1.6 | 4.8 | 0.00 | 0.00 | 0.00 | 67 | 1013.3 |
| 20260905153851 | 29 | 261 | 0.0 | 1.6 | 0.00 | 0.00 | 0.00 | 66 | 1012.9 |
| 20260905153347 | 30 | 116 | 4.8 | 8.0 | 0.00 | 0.00 | 0.00 | 68 | 1013.2 |
| 20260905152847 | 29 | 283 | 1.6 | 3.2 | 0.00 | 0.00 | 0.00 | 67 | 1013.3 |
| 20260905152346 | 29 | 268 | 1.6 | 1.6 | 0.00 | 0.00 | 0.00 | 69 | 1013.2 |
| 20260905151841 | 29 | 264 | 1.6 | 3.2 | 0.00 | 0.00 | 0.00 | 68 | 1013.5 |
| 20260905151337 | 28 | 210 | 0.0 | 1.6 | 0.00 | 0.00 | 0.00 | 69 | 1013.4 |
| 20260905150837 | 28 | 248 | 1.6 | 3.2 | 0.00 | 0.00 | 0.00 | 70 | 1013.5 |
| 20260905150331 | 28 | 17 | 0.0 | 1.6 | 0.00 | 0.00 | 0.00 | 71 | 1013.4 |
| 20260905145828 | 27 | 164 | 1.6 | 3.2 | 0.00 | 0.00 | 0.00 | 71 | 1013.4 |
| 20260905145323 | 27 | 315 | 3.2 | 4.8 | 0.00 | 0.00 | 0.00 | 71 | 1013.4 |
| 20260905144822 | 27 | 220 | 4.8 | 4.8 | 0.00 | 0.00 | 0.00 | 72 | 1013.5 |
| 20260905144318 | 27 | 271 | 1.6 | 1.6 | 0.00 | 0.00 | 0.00 | 73 | 1013.7 |
| 20260905143816 | 27 | 86 | 8.0 | 9.7 | 0.00 | 0.00 | 0.00 | 72 | 1013.4 |
| 20260905143311 | 27 | 53 | 4.8 | 4.8 | 0.00 | 0.00 | 0.00 | 72 | 1013.5 |
| 20260905142810 | 26 | 253 | 1.6 | 1.6 | 0.00 | 0.00 | 0.00 | 74 | 1013.8 |
| 20260905142306 | 26 | 143 | 3.2 | 3.2 | 0.00 | 0.00 | 0.00 | 75 | 1013.6 |
| 20260905141800 | 27 | 74 | 3.2 | 4.8 | 0.00 | 0.00 | 0.00 | 73 | 1013.8 |
| 20260905141255 | 26 | 266 | 1.6 | 1.6 | 0.00 | 0.00 | 0.00 | 75 | 1013.6 |
| 20260905140751 | 26 | 82 | 6.4 | 9.7 | 0.00 | 0.00 | 0.00 | 76 | 1013.7 |
| 20260905140251 | 26 | 208 | 3.2 | 4.8 | 0.00 | 0.00 | 0.00 | 73 | 1013.8 |
| 20260905135749 | 26 | 333 | 1.6 | 3.2 | 0.00 | 0.00 | 0.00 | 76 | 1013.8 |
| 20260905135245 | 25 | 83 | 4.8 | 8.0 | 0.00 | 0.00 | 0.00 | 76 | 1013.6 |
| 20260905134744 | 25 | 321 | 3.2 | 3.2 | 0.00 | 0.00 | 0.00 | 76 | 1013.7 |
| 20260905134239 | 25 | 150 | 4.8 | 4.8 | 0.00 | 0.00 | 0.00 | 77 | 1013.6 |
| 20260905133734 | 25 | 171 | 8.0 | 11.3 | 0.00 | 0.00 | 0.00 | 77 | 1013.6 |
| 20260905133229 | 25 | 37 | 8.0 | 11.3 | 0.00 | 0.00 | 0.00 | 77 | 1013.9 |
| 20260905132728 | 25 | 301 | 4.8 | 9.7 | 0.00 | 0.00 | 0.00 | 78 | 1013.4 |
| 20260905132224 | 25 | 92 | 4.8 | 8.0 | 0.00 | 0.00 | 0.00 | 78 | 1013.7 |
| 20260905131718 | 25 | 255 | 3.2 | 3.2 | 0.00 | 0.00 | 0.00 | 79 | 1013.8 |
| 20260905131214 | 24 | 206 | 4.8 | 4.8 | 0.00 | 0.00 | 0.00 | 79 | 1013.6 |
| 20260905130708 | 24 | 269 | 8.0 | 11.3 | 0.00 | 0.00 | 0.00 | 81 | 1013.9 |
| 20260905130208 | 25 | 146 | 6.4 | 9.7 | 0.00 | 0.00 | 0.00 | 80 | 1013.8 |
| 20260905125703 | 24 | 215 | 1.6 | 1.6 | 0.00 | 0.00 | 0.00 | 81 | 1013.9 |
| 20260905125158 | 24 | 189 | 0.0 | 1.6 | 0.00 | 0.00 | 0.00 | 81 | 1013.9 |
| 20260905124654 | 24 | 123 | 3.2 | 3.2 | 0.00 | 0.00 | 0.00 | 82 | 1013.8 |
| 20260905124150 | 24 | 154 | 8.0 | 12.9 | 0.00 | 0.00 | 0.00 | 81 | 1014.0 |
| 20260905123645 | 23 | 38 | 4.8 | 4.8 | 0.00 | 0.00 | 0.00 | 83 | 1013.9 |
| 20260905123142 | 23 | 32 | 4.8 | 4.8 | 0.00 | 0.00 | 0.00 | 83 | 1014.0 |
| 20260905122641 | 23 | 58 | 6.4 | 9.7 | 0.00 | 0.00 | 0.00 | 83 | 1013.7 |
| 20260905122136 | 23 | 75 | 4.8 | 8.0 | 0.00 | 0.00 | 0.00 | 83 | 1013.6 |
| 20260905121631 | 23 | 78 | 6.4 | 8.0 | 0.00 | 0.00 | 0.00 | 84 | 1013.9 |
| 20260905121126 | 24 | 153 | 4.8 | 8.0 | 0.00 | 0.00 | 0.00 | 83 | 1013.7 |
| 20260905120625 | 24 | 136 | 3.2 | 4.8 | 0.00 | 0.00 | 0.00 | 84 | 1013.4 |
| 20260905120121 | 24 | 273 | 1.6 | 4.8 | 0.00 | 0.00 | 0.00 | 85 | 1013.6 |
| 20260905115620 | 24 | 84 | 6.4 | 8.0 | 0.00 | 0.00 | 0.00 | 86 | 1013.6 |
| 20260905115115 | 24 | 104 | 4.8 | 4.8 | 0.00 | 0.00 | 0.00 | 89 | 1013.5 |
| 20260905114614 | 24 | 159 | 3.2 | 3.2 | 0.00 | 0.00 | 0.00 | 89 | 1013.4 |
| 20260905114113 | 25 | 94 | 4.8 | 9.7 | 0.00 | 0.00 | 0.00 | 89 | 1013.2 |
| 20260905113608 | 25 | 63 | 8.0 | 11.3 | 0.00 | 0.00 | 0.00 | 88 | 1013.2 |
| 20260905113104 | 25 | 238 | 4.8 | 8.0 | 0.00 | 0.00 | 0.00 | 93 | 1013.0 |
| 20260905112558 | 24 | 59 | 4.8 | 4.8 | 0.00 | 0.00 | 0.00 | 96 | 1012.7 |
| 20260905112054 | 23 | 87 | 3.2 | 4.8 | 0.00 | 0.00 | 0.00 | 98 | 1012.8 |
| 20260905111549 | 23 | 307 | 0.0 | 0.0 | 0.00 | 0.00 | 0.00 | 98 | 1012.3 |
| 20260905111048 | 23 | 278 | 0.0 | 0.0 | 0.00 | 0.00 | 0.00 | 97 | 1012.1 |
| 20260905110547 | 23 | 282 | 0.0 | 0.0 | 0.00 | 0.00 | 0.00 | 97 | 1012.1 |
| 20260905110043 | 23 | 282 | 0.0 | 0.0 | 0.00 | 0.00 | 0.00 | 97 | 1011.9 |
| 20260905105542 | 23 | 281 | 0.0 | 0.0 | 0.00 | 0.00 | 0.00 | 97 | 1012.0 |
| 20260905105042 | 23 | 275 | 0.0 | 0.0 | 0.00 | 0.00 | 0.00 | 97 | 1012.0 |
| 20260905104538 | 23 | 270 | 0.0 | 0.0 | 0.00 | 0.00 | 0.00 | 97 | 1012.3 |
| 20260905104037 | 23 | 272 | 0.0 | 0.0 | 0.00 | 0.00 | 0.00 | 97 | 1012.0 |
| 20260905103533 | 23 | 277 | 0.0 | 0.0 | 0.00 | 0.00 | 0.00 | 97 | 1012.3 |
| 20260905103029 | 23 | 279 | 0.0 | 0.0 | 0.00 | 0.00 | 0.00 | 97 | 1012.1 |
| 20260905102524 | 23 | 279 | 0.0 | 0.0 | 0.00 | 0.00 | 0.00 | 97 | 1011.8 |
| 20260905102021 | 23 | 279 | 0.0 | 0.0 | 0.00 | 0.00 | 0.00 | 97 | 1011.9 |
| 20260905101519 | 23 | 277 | 0.0 | 0.0 | 0.00 | 0.00 | 0.00 | 97 | 1011.8 |
| 20260905101017 | 23 | 276 | 0.0 | 0.0 | 0.00 | 0.00 | 0.00 | 97 | 1011.9 |
| 20260905100514 | 23 | 277 | 0.0 | 0.0 | 0.00 | 0.00 | 0.00 | 98 | 1011.7 |
| 20260905100008 | 23 | 276 | 0.0 | 0.0 | 0.00 | 0.00 | 0.00 | 98 | 1011.9 |
| 20260905095503 | 23 | 275 | 0.0 | 0.0 | 0.00 | 0.00 | 0.00 | 98 | 1011.7 |
| 20260905094957 | 23 | 278 | 0.0 | 0.0 | 0.00 | 0.00 | 0.00 | 98 | 1011.9 |
| 20260905094453 | 23 | 280 | 0.0 | 0.0 | 0.00 | 0.00 | 0.00 | 98 | 1011.9 |
| 20260905093951 | 23 | 277 | 0.0 | 0.0 | 0.00 | 0.00 | 0.00 | 98 | 1012.0 |
| 20260905093447 | 23 | 278 | 0.0 | 0.0 | 0.00 | 0.00 | 0.00 | 97 | 1011.8 |
| 20260905092943 | 24 | 278 | 0.0 | 0.0 | 0.00 | 0.00 | 0.00 | 97 | 1011.8 |
| 20260905092438 | 24 | 278 | 0.0 | 0.0 | 0.00 | 0.00 | 0.00 | 97 | 1011.9 |
| 20260905091932 | 24 | 278 | 0.0 | 0.0 | 0.00 | 0.00 | 0.00 | 97 | 1012.0 |
| 20260905091427 | 23 | 274 | 0.0 | 0.0 | 0.00 | 0.00 | 0.00 | 97 | 1012.0 |
| 20260905090926 | 23 | 274 | 0.0 | 0.0 | 0.00 | 0.00 | 0.00 | 97 | 1012.1 |
| 20260905090422 | 23 | 274 | 0.0 | 0.0 | 0.00 | 0.00 | 0.00 | 97 | 1011.9 |
| 20260905085920 | 24 | 274 | 0.0 | 0.0 | 0.00 | 0.00 | 0.00 | 97 | 1012.0 |
| 20260905085415 | 24 | 274 | 0.0 | 0.0 | 0.00 | 0.00 | 0.00 | 97 | 1011.9 |
| 20260905084911 | 23 | 274 | 0.0 | 0.0 | 0.00 | 0.00 | 0.00 | 97 | 1011.7 |
| 20260905084410 | 24 | 274 | 0.0 | 0.0 | 0.00 | 0.00 | 0.00 | 97 | 1011.8 |
| 20260905083905 | 24 | 276 | 0.0 | 0.0 | 0.00 | 0.00 | 0.00 | 97 | 1011.7 |
| 20260905083401 | 24 | 276 | 0.0 | 0.0 | 0.00 | 0.00 | 0.00 | 97 | 1011.9 |
| 20260905082856 | 24 | 279 | 0.0 | 0.0 | 0.00 | 0.00 | 0.00 | 97 | 1011.8 |
| 20260905082352 | 24 | 278 | 0.0 | 0.0 | 0.00 | 0.00 | 0.00 | 97 | 1011.8 |
| 20260905081847 | 24 | 282 | 0.0 | 0.0 | 0.00 | 0.00 | 0.00 | 97 | 1011.5 |
| 20260905081342 | 24 | 280 | 0.0 | 0.0 | 0.00 | 0.00 | 0.00 | 97 | 1011.6 |
| 20260905080840 | 24 | 277 | 0.0 | 0.0 | 0.00 | 0.00 | 0.00 | 97 | 1011.2 |
| 20260905080335 | 24 | 279 | 0.0 | 0.0 | 0.00 | 0.00 | 0.00 | 97 | 1011.5 |